When you browse on this site, cookies collect data to enhance your experience and personalize the content and advertising you see.
Visit our Privacy Policy to learn more. By continuing to use the site, you agree to this use of cookies and data.
  • In Latvia
  • List of Countries
  • For 7 days
  • Water Temperature
  • Satellite Maps
  • Weather Map
  • Weather Widgets
  • user-avatar
    Login

    Hourly Weather Ropotamo

    Today, 22 April, Monday

    Time Temperature Precipitation Wind Pressure Humidity
    00:00 +7°C° 0 mm 2 mps 763 mmHg 69%
    01:00 +8°C° 0 mm 1 mps 763 mmHg 70%
    02:00 +8°C° 0 mm 1 mps 763 mmHg 70%
    03:00 +7°C° 0 mm 1 mps 762 mmHg 71%
    04:00 +7°C° 0 mm 1 mps 762 mmHg 72%
    05:00 +7°C° 0 mm 1 mps 762 mmHg 73%
    06:00 +9°C° 0 mm 1 mps 762 mmHg 68%
    07:00 +10°C° 0 mm 2 mps 763 mmHg 63%
    08:00 +12°C° 0 mm 3 mps 763 mmHg 56%
    09:00 +13°C° 0 mm 3 mps 763 mmHg 54%
    10:00 +14°C° 0 mm 4 mps 763 mmHg 52%
    11:00 +14°C° 0 mm 4 mps 763 mmHg 49%
    12:00 +14°C° 0 mm 5 mps 763 mmHg 50%
    13:00 +15°C° 0 mm 5 mps 763 mmHg 50%
    14:00 +15°C° 0 mm 6 mps 763 mmHg 51%
    15:00 +14°C° 0 mm 6 mps 763 mmHg 52%
    16:00 +13°C° 0 mm 5 mps 763 mmHg 53%
    17:00 +12°C° 0 mm 5 mps 763 mmHg 53%
    18:00 +10°C° 0 mm 5 mps 763 mmHg 57%
    19:00 +8°C° 0 mm 4 mps 764 mmHg 60%
    20:00 +7°C° 0 mm 4 mps 764 mmHg 63%
    21:00 +7°C° 0 mm 4 mps 764 mmHg 65%
    22:00 +7°C° 0 mm 3 mps 764 mmHg 66%
    23:00 +7°C° 0 mm 3 mps 764 mmHg 68%

    Tomorrow, 23 April, Tuesday

    Time Temperature Precipitation Wind Pressure Humidity
    00:00 +7°C° 0 mm 3 mps 765 mmHg 70%
    01:00 +7°C° 0 mm 3 mps 765 mmHg 72%
    02:00 +7°C° 0 mm 3 mps 765 mmHg 74%
    03:00 +7°C° 0 mm 2 mps 765 mmHg 74%
    04:00 +7°C° 0 mm 2 mps 765 mmHg 75%
    05:00 +7°C° 0 mm 2 mps 765 mmHg 76%
    06:00 +8°C° 0 mm 3 mps 765 mmHg 74%
    07:00 +9°C° 0 mm 3 mps 765 mmHg 73%
    08:00 +10°C° 0 mm 3 mps 765 mmHg 71%
    09:00 +11°C° 0 mm 4 mps 765 mmHg 68%
    10:00 +12°C° 0 mm 4 mps 766 mmHg 64%
    11:00 +13°C° 0 mm 4 mps 766 mmHg 60%
    12:00 +13°C° 0 mm 4 mps 766 mmHg 60%
    13:00 +13°C° 0 mm 4 mps 766 mmHg 59%
    14:00 +13°C° 0 mm 4 mps 765 mmHg 58%
    15:00 +13°C° 0 mm 4 mps 765 mmHg 60%
    16:00 +13°C° 0 mm 4 mps 765 mmHg 61%
    17:00 +12°C° 0 mm 4 mps 765 mmHg 62%
    18:00 +11°C° 0 mm 4 mps 765 mmHg 66%
    19:00 +11°C° 0 mm 4 mps 765 mmHg 69%
    20:00 +10°C° 0 mm 4 mps 765 mmHg 73%
    21:00 +10°C° 0.1 mm 4 mps 765 mmHg 76%
    22:00 +10°C° 0.1 mm 4 mps 765 mmHg 79%
    23:00 +8°C° 0.1 mm 4 mps 766 mmHg 83%

    Day after tomorrow, 24 April, Wednesday

    Time Temperature Precipitation Wind Pressure Humidity
    00:00 +8°C° 0.3 mm 4 mps 765 mmHg 86%
    01:00 +9°C° 0.3 mm 3 mps 765 mmHg 89%
    02:00 +9°C° 0.3 mm 3 mps 765 mmHg 91%
    03:00 +9°C° 1.2 mm 3 mps 765 mmHg 92%
    04:00 +9°C° 1.2 mm 3 mps 765 mmHg 93%
    05:00 +9°C° 1.2 mm 3 mps 765 mmHg 94%
    06:00 +10°C° 0 mm 3 mps 765 mmHg 92%
    07:00 +11°C° 0 mm 3 mps 765 mmHg 89%
    08:00 +12°C° 0 mm 3 mps 765 mmHg 86%
    09:00 +13°C° 0 mm 3 mps 765 mmHg 81%
    10:00 +16°C° 0 mm 3 mps 765 mmHg 75%
    11:00 +17°C° 0 mm 4 mps 766 mmHg 69%
    12:00 +17°C° 0 mm 4 mps 765 mmHg 69%
    13:00 +16°C° 0 mm 5 mps 765 mmHg 69%
    14:00 +16°C° 0 mm 5 mps 765 mmHg 69%
    15:00 +16°C° 0 mm 5 mps 765 mmHg 72%
    16:00 +15°C° 0 mm 5 mps 765 mmHg 75%
    17:00 +14°C° 0 mm 5 mps 765 mmHg 78%
    18:00 +12°C° 0 mm 4 mps 765 mmHg 83%
    19:00 +11°C° 0 mm 4 mps 765 mmHg 89%
    20:00 +10°C° 0 mm 3 mps 765 mmHg 94%
    21:00 +9°C° 0 mm 3 mps 765 mmHg 94%
    22:00 +9°C° 0 mm 2 mps 766 mmHg 94%
    23:00 +9°C° 0 mm 2 mps 766 mmHg 94%

    25 April, Thursday

    Time Temperature Precipitation Wind Pressure Humidity
    00:00 +9°C° 0 mm 2 mps 766 mmHg 94%
    01:00 +9°C° 0 mm 2 mps 766 mmHg 94%
    02:00 +10°C° 0 mm 1 mps 766 mmHg 93%
    03:00 +9°C° 0 mm 1 mps 766 mmHg 93%
    04:00 +8°C° 0 mm 2 mps 766 mmHg 93%
    05:00 +8°C° 0 mm 2 mps 766 mmHg 93%
    06:00 +10°C° 0 mm 2 mps 766 mmHg 89%
    07:00 +12°C° 0 mm 2 mps 766 mmHg 84%
    08:00 +13°C° 0 mm 2 mps 766 mmHg 79%
    09:00 +15°C° 0 mm 2 mps 766 mmHg 75%
    10:00 +16°C° 0 mm 3 mps 766 mmHg 71%
    11:00 +17°C° 0 mm 3 mps 766 mmHg 67%
    12:00 +17°C° 0 mm 3 mps 766 mmHg 66%
    13:00 +17°C° 0 mm 4 mps 765 mmHg 66%
    14:00 +17°C° 0 mm 4 mps 765 mmHg 65%
    15:00 +15°C° 0 mm 4 mps 765 mmHg 68%
    16:00 +15°C° 0 mm 4 mps 765 mmHg 71%
    17:00 +14°C° 0 mm 4 mps 764 mmHg 73%
    18:00 +12°C° 0 mm 3 mps 765 mmHg 80%
    19:00 +11°C° 0 mm 3 mps 765 mmHg 88%
    20:00 +10°C° 0 mm 3 mps 765 mmHg 95%
    21:00 +9°C° 0 mm 2 mps 765 mmHg 95%
    22:00 +9°C° 0 mm 2 mps 765 mmHg 95%
    23:00 +10°C° 0 mm 1 mps 765 mmHg 95%

    26 April, Friday

    Time Temperature Precipitation Wind Pressure Humidity
    00:00 +10°C° 0 mm 1 mps 764 mmHg 94%
    01:00 +9°C° 0 mm 1 mps 764 mmHg 94%
    02:00 +9°C° 0 mm 1 mps 764 mmHg 94%
    03:00 +8°C° 0 mm 2 mps 764 mmHg 94%
    04:00 +8°C° 0 mm 2 mps 764 mmHg 94%
    05:00 +8°C° 0 mm 2 mps 764 mmHg 94%
    06:00 +10°C° 0 mm 2 mps 764 mmHg 88%
    07:00 +12°C° 0 mm 2 mps 764 mmHg 82%
    08:00 +14°C° 0 mm 2 mps 764 mmHg 76%
    09:00 +15°C° 0 mm 2 mps 764 mmHg 71%
    10:00 +16°C° 0 mm 3 mps 764 mmHg 66%
    11:00 +17°C° 0 mm 3 mps 764 mmHg 61%
    12:00 +17°C° 0 mm 4 mps 763 mmHg 60%
    13:00 +17°C° 0 mm 4 mps 763 mmHg 59%
    14:00 +17°C° 0 mm 4 mps 763 mmHg 59%
    15:00 +17°C° 0 mm 4 mps 762 mmHg 61%
    16:00 +15°C° 0 mm 4 mps 762 mmHg 64%
    17:00 +14°C° 0 mm 4 mps 762 mmHg 67%
    18:00 +13°C° 0 mm 3 mps 762 mmHg 74%
    19:00 +12°C° 0 mm 2 mps 762 mmHg 81%
    20:00 +10°C° 0 mm 2 mps 763 mmHg 89%
    21:00 +10°C° 0 mm 1 mps 762 mmHg 89%
    22:00 +10°C° 0 mm 1 mps 762 mmHg 90%
    23:00 +10°C° 0 mm 1 mps 762 mmHg 90%

    27 April, Saturday

    Time Temperature Precipitation Wind Pressure Humidity
    00:00 +10°C° 0 mm 1 mps 762 mmHg 90%
    01:00 +8°C° 0 mm 0 mps 762 mmHg 90%
    02:00 +8°C° 0 mm 0 mps 761 mmHg 90%
    03:00 +8°C° 0 mm 0 mps 761 mmHg 90%
    04:00 +8°C° 0 mm 0 mps 761 mmHg 90%
    05:00 +8°C° 0 mm 0 mps 761 mmHg 90%
    06:00 +11°C° 0 mm 1 mps 761 mmHg 84%
    07:00 +13°C° 0 mm 1 mps 761 mmHg 78%
    08:00 +14°C° 0 mm 1 mps 761 mmHg 72%
    09:00 +16°C° 0 mm 2 mps 761 mmHg 67%
    10:00 +17°C° 0 mm 2 mps 760 mmHg 61%
    11:00 +18°C° 0 mm 3 mps 760 mmHg 56%
    12:00 +18°C° 0 mm 3 mps 760 mmHg 55%
    13:00 +18°C° 0 mm 4 mps 759 mmHg 53%
    14:00 +19°C° 0 mm 4 mps 759 mmHg 52%
    15:00 +18°C° 0 mm 4 mps 759 mmHg 55%
    16:00 +17°C° 0 mm 4 mps 759 mmHg 58%
    17:00 +15°C° 0 mm 4 mps 758 mmHg 61%
    18:00 +13°C° 0 mm 3 mps 759 mmHg 68%
    19:00 +12°C° 0 mm 3 mps 759 mmHg 75%
    20:00 +10°C° 0 mm 2 mps 759 mmHg 82%
    21:00 +10°C° 0 mm 2 mps 759 mmHg 82%
    22:00 +9°C° 0 mm 2 mps 759 mmHg 82%
    23:00 +9°C° 0 mm 2 mps 759 mmHg 82%
    Show more